Location: Unspecified
(57.6483°N, 3.3184°W)
Time: 01:13:47
(UTC+01:00)

N. Korean satellite - Pass Details

Date: 05 March 2021
Orbit: 452 x 499 km, 97.2° (Epoch: 22 April)

Event Time Altitude Azimuth Distance (km) Brightness Sun altitude
Rises 04:28:06 0° 29° (NNE) 2,527 11.0 -20.3°
Reaches altitude 10° 04:31:12 10° 59° (ENE) 1,654 10.4 -19.9°
Maximum altitude 04:32:49 13° 86° (E) 1,501 10.1 -19.7°
Drops below altitude 10° 04:34:26 10° 113° (ESE) 1,661 9.9 -19.5°
Sets 04:37:33 0° 144° (SE) 2,546 10.4 -19.1°
